User: anonymous   Login
Location: Unspecified
(0.0000°N, 0.0000°E)
Time: 12:12:41
(UTC+00:00)
Language:

NUSAT 2 - Orbit

View from above orbital plane
View from above orbital plane
View from above satellite
View from above satellite

Ground track
Ground track

The orbit data is extracted from the following two-line orbital elements,

1 41558U 16033C   21016.13205509  .00001953  00000-0  67982-4 0  9995
2 41558  97.4068 114.1532 0013458  55.3399  37.5584 15.30837223258417
Epoch (UTC): 16 January 2021 03:10:09
Eccentricity: 0.0013458
inclination: 97.4068°
perigee height: 464 km
apogee height: 482 km
right ascension of ascending node: 114.1532°
argument of perigee: 55.3399°
revolutions per day: 15.30837223
mean anomaly at epoch: 37.5584°
orbit number at epoch: 25841

The dashed part of the orbit path shows where the satellite is in the earth's shadow,  

DLR